![]() |
EMODnet Physics ERDDAP
Easier access to scientific data |
log in|
Brought to you by EMODnet Physics |
| Dataset Title: | NDBC - Collection of dew point temperature (DEWT) TimeSeries - IN SITU MultiPointTimeSeriesObservation
|
| Institution: | NDBC (Dataset ID: TS_DEWT_NDBC) |
| Information: | Summary
| License
| FGDC
| ISO 19115
| Metadata
| Background
| Subset
| Data Access Form
| Make a graph
|
| Name | Last modified | Size | Description | |
|---|---|---|---|---|
| Parent Directory | - | - | ||
| 46011_TS_DEWT_011981.nc | 06-Dec-2024 10:17 | 1626562 | ||
| 46011_TS_DEWT_011983.nc | 06-Dec-2024 10:20 | 1626475 | ||
| 46011_TS_DEWT_011985.nc | 06-Dec-2024 10:23 | 1626334 | ||
| 46011_TS_DEWT_011986.nc | 06-Dec-2024 10:24 | 1626725 | ||
| 46011_TS_DEWT_011988.nc | 06-Dec-2024 10:27 | 1624220 | ||
| 46011_TS_DEWT_011989.nc | 06-Dec-2024 10:28 | 1626446 | ||
| 46011_TS_DEWT_011991.nc | 06-Dec-2024 10:31 | 1626829 | ||
| 46011_TS_DEWT_011995.nc | 06-Dec-2024 10:52 | 1460154 | ||
| 46011_TS_DEWT_011997.nc | 06-Dec-2024 10:55 | 1467385 | ||
| 46011_TS_DEWT_011998.nc | 06-Dec-2024 10:58 | 1471607 | ||
| 46011_TS_DEWT_011999.nc | 06-Dec-2024 11:00 | 1475656 | ||
| 46011_TS_DEWT_012001.nc | 06-Dec-2024 11:04 | 1472342 | ||
| 46011_TS_DEWT_012002.nc | 06-Dec-2024 11:06 | 1471647 | ||
| 46011_TS_DEWT_012003.nc | 06-Dec-2024 11:08 | 1476639 | ||
| 46011_TS_DEWT_012004.nc | 06-Dec-2024 11:09 | 1474323 | ||
| 46011_TS_DEWT_012005.nc | 06-Dec-2024 11:12 | 1476983 | ||
| 46011_TS_DEWT_012006.nc | 06-Dec-2024 11:13 | 1476931 | ||
| 46011_TS_DEWT_012008.nc | 06-Dec-2024 11:27 | 1476901 | ||
| 46011_TS_DEWT_012009.nc | 06-Dec-2024 11:29 | 1476339 | ||
| 46011_TS_DEWT_012011.nc | 06-Dec-2024 11:34 | 1474436 | ||
| 46011_TS_DEWT_012012.nc | 06-Dec-2024 11:36 | 1474708 | ||
| 46011_TS_DEWT_012013.nc | 06-Dec-2024 11:38 | 1458546 | ||
| 46011_TS_DEWT_012014.nc | 06-Dec-2024 11:40 | 1475066 | ||
| 46011_TS_DEWT_012015.nc | 06-Dec-2024 11:43 | 1625115 | ||
| 46011_TS_DEWT_012016.nc | 06-Dec-2024 11:45 | 1625569 | ||
| 46011_TS_DEWT_012017.nc | 06-Dec-2024 11:47 | 1626167 | ||
| 46011_TS_DEWT_012018.nc | 06-Dec-2024 11:50 | 1626837 | ||
| 46011_TS_DEWT_012019.nc | 06-Dec-2024 12:03 | 1625736 | ||
| 46011_TS_DEWT_012020.nc | 06-Dec-2024 12:07 | 1625637 | ||
| 46011_TS_DEWT_012021.nc | 06-Dec-2024 12:23 | 1625619 | ||
| 46011_TS_DEWT_012022.nc | 06-Dec-2024 12:40 | 1625636 | ||
| 46011_TS_DEWT_012023.nc | 06-Dec-2024 12:55 | 1626063 | ||
| 46011_TS_DEWT_012026.nc | 02-Feb-2026 14:07 | 1624845 | ||
| 46011_TS_DEWT_021981.nc | 06-Dec-2024 10:17 | 1626611 | ||
| 46011_TS_DEWT_021983.nc | 06-Dec-2024 10:20 | 1626321 | ||
| 46011_TS_DEWT_021984.nc | 06-Dec-2024 10:21 | 1626826 | ||
| 46011_TS_DEWT_021985.nc | 06-Dec-2024 10:23 | 1475574 | ||
| 46011_TS_DEWT_021986.nc | 06-Dec-2024 10:24 | 1471879 | ||
| 46011_TS_DEWT_021988.nc | 06-Dec-2024 10:27 | 1477498 | ||
| 46011_TS_DEWT_021989.nc | 06-Dec-2024 10:28 | 1626801 | ||
| 46011_TS_DEWT_021990.nc | 06-Dec-2024 10:30 | 1626191 | ||
| 46011_TS_DEWT_021991.nc | 06-Dec-2024 10:31 | 1626363 | ||
| 46011_TS_DEWT_021995.nc | 06-Dec-2024 10:52 | 1626337 | ||
| 46011_TS_DEWT_021997.nc | 06-Dec-2024 10:56 | 1626615 | ||
| 46011_TS_DEWT_021998.nc | 06-Dec-2024 10:58 | 1626745 | ||
| 46011_TS_DEWT_021999.nc | 06-Dec-2024 11:00 | 1477106 | ||
| 46011_TS_DEWT_022001.nc | 06-Dec-2024 11:04 | 1626790 | ||
| 46011_TS_DEWT_022002.nc | 06-Dec-2024 11:06 | 1624311 | ||
| 46011_TS_DEWT_022004.nc | 06-Dec-2024 11:09 | 1626662 | ||
| 46011_TS_DEWT_022005.nc | 06-Dec-2024 11:12 | 1626681 | ||
| 46011_TS_DEWT_022006.nc | 06-Dec-2024 11:14 | 1626521 | ||
| 46011_TS_DEWT_022007.nc | 06-Dec-2024 11:23 | 1473330 | ||
| 46011_TS_DEWT_022008.nc | 06-Dec-2024 11:28 | 1472456 | ||
| 46011_TS_DEWT_022009.nc | 06-Dec-2024 11:30 | 603611 | ||
| 46011_TS_DEWT_022010.nc | 06-Dec-2024 11:32 | 1473779 | ||
| 46011_TS_DEWT_022011.nc | 06-Dec-2024 11:34 | 1476927 | ||
| 46011_TS_DEWT_022012.nc | 06-Dec-2024 11:36 | 1476964 | ||
| 46011_TS_DEWT_022013.nc | 06-Dec-2024 11:38 | 1476239 | ||
| 46011_TS_DEWT_022014.nc | 06-Dec-2024 11:41 | 1476925 | ||
| 46011_TS_DEWT_022015.nc | 06-Dec-2024 11:43 | 1476620 | ||
| 46011_TS_DEWT_022016.nc | 06-Dec-2024 11:45 | 1476317 | ||
| 46011_TS_DEWT_022017.nc | 06-Dec-2024 11:48 | 1476865 | ||
| 46011_TS_DEWT_022018.nc | 06-Dec-2024 11:50 | 1476965 | ||
| 46011_TS_DEWT_022019.nc | 06-Dec-2024 12:04 | 1476363 | ||
| 46011_TS_DEWT_022020.nc | 06-Dec-2024 12:08 | 1476727 | ||
| 46011_TS_DEWT_022022.nc | 06-Dec-2024 12:40 | 1476807 | ||
| 46011_TS_DEWT_022023.nc | 06-Dec-2024 12:56 | 418869 | ||
| 46011_TS_DEWT_022026.nc | 01-Mar-2026 13:12 | 1474147 | ||
| 46011_TS_DEWT_031981.nc | 06-Dec-2024 10:17 | 1477584 | ||
| 46011_TS_DEWT_031982.nc | 06-Dec-2024 10:19 | 1626751 | ||
| 46011_TS_DEWT_031983.nc | 06-Dec-2024 10:20 | 1626778 | ||
| 46011_TS_DEWT_031984.nc | 06-Dec-2024 10:21 | 1625045 | ||
| 46011_TS_DEWT_031985.nc | 06-Dec-2024 10:23 | 1626814 | ||
| 46011_TS_DEWT_031986.nc | 06-Dec-2024 10:25 | 1626700 | ||
| 46011_TS_DEWT_031988.nc | 06-Dec-2024 10:27 | 1626814 | ||
| 46011_TS_DEWT_031989.nc | 06-Dec-2024 10:29 | 1626600 | ||
| 46011_TS_DEWT_031990.nc | 06-Dec-2024 10:30 | 1626655 | ||
| 46011_TS_DEWT_031991.nc | 06-Dec-2024 10:31 | 1625138 | ||
| 46011_TS_DEWT_031992.nc | 06-Dec-2024 10:47 | 1626396 | ||
| 46011_TS_DEWT_031995.nc | 06-Dec-2024 10:52 | 1626415 | ||
| 46011_TS_DEWT_031997.nc | 06-Dec-2024 10:56 | 1626752 | ||
| 46011_TS_DEWT_031998.nc | 06-Dec-2024 10:58 | 1472667 | ||
| 46011_TS_DEWT_031999.nc | 06-Dec-2024 11:00 | 1476995 | ||
| 46011_TS_DEWT_032001.nc | 06-Dec-2024 11:04 | 1476192 | ||
| 46011_TS_DEWT_032002.nc | 06-Dec-2024 11:06 | 1476301 | ||
| 46011_TS_DEWT_032003.nc | 06-Dec-2024 11:08 | 1476997 | ||
| 46011_TS_DEWT_032004.nc | 06-Dec-2024 11:10 | 1476792 | ||
| 46011_TS_DEWT_032005.nc | 06-Dec-2024 11:12 | 1476318 | ||
| 46011_TS_DEWT_032006.nc | 06-Dec-2024 11:14 | 1476911 | ||
| 46011_TS_DEWT_032007.nc | 06-Dec-2024 11:24 | 1476811 | ||
| 46011_TS_DEWT_032008.nc | 06-Dec-2024 11:28 | 1476642 | ||
| 46011_TS_DEWT_032009.nc | 06-Dec-2024 11:30 | 1465184 | ||
| 46011_TS_DEWT_032010.nc | 06-Dec-2024 11:32 | 1476886 | ||
| 46011_TS_DEWT_032011.nc | 06-Dec-2024 11:34 | 1476950 | ||
| 46011_TS_DEWT_032012.nc | 06-Dec-2024 11:36 | 1476821 | ||
| 46011_TS_DEWT_032013.nc | 06-Dec-2024 11:38 | 1161038 | ||
| 46011_TS_DEWT_032014.nc | 06-Dec-2024 11:41 | 993574 | ||
| 46011_TS_DEWT_032015.nc | 06-Dec-2024 11:43 | 1626808 | ||
| 46011_TS_DEWT_032016.nc | 06-Dec-2024 11:45 | 1626418 | ||
| 46011_TS_DEWT_032017.nc | 06-Dec-2024 11:48 | 1626662 | ||
| 46011_TS_DEWT_032018.nc | 06-Dec-2024 11:51 | 1626813 | ||
| 46011_TS_DEWT_032019.nc | 06-Dec-2024 12:04 | 1624191 | ||
| 46011_TS_DEWT_032020.nc | 06-Dec-2024 12:10 | 1626687 | ||
| 46011_TS_DEWT_032021.nc | 06-Dec-2024 12:27 | 1626673 | ||
| 46011_TS_DEWT_032022.nc | 06-Dec-2024 12:40 | 1477590 | ||
| 46011_TS_DEWT_032023.nc | 06-Dec-2024 12:56 | 1625837 | ||
| 46011_TS_DEWT_032026.nc | 24-Mar-2026 13:53 | 1626475 | ||
| 46011_TS_DEWT_041981.nc | 06-Dec-2024 10:17 | 1625848 | ||
| 46011_TS_DEWT_041982.nc | 06-Dec-2024 10:19 | 1474707 | ||
| 46011_TS_DEWT_041983.nc | 06-Dec-2024 10:20 | 1626812 | ||
| 46011_TS_DEWT_041984.nc | 06-Dec-2024 10:22 | 1263022 | ||
| 46011_TS_DEWT_041985.nc | 06-Dec-2024 10:23 | 1263916 | ||
| 46011_TS_DEWT_041986.nc | 06-Dec-2024 10:25 | 4820932 | ||
| 46011_TS_DEWT_041987.nc | 06-Dec-2024 10:26 | 685912 | ||
| 46011_TS_DEWT_041988.nc | 06-Dec-2024 10:27 | 1024727 | ||
| 46011_TS_DEWT_041989.nc | 06-Dec-2024 10:29 | 3279622 | ||
| 46011_TS_DEWT_041990.nc | 06-Dec-2024 10:30 | 2479030 | ||
| 46011_TS_DEWT_041991.nc | 06-Dec-2024 10:31 | 1263941 | ||
| 46011_TS_DEWT_041992.nc | 06-Dec-2024 10:48 | 4388318 | ||
| 46011_TS_DEWT_041995.nc | 06-Dec-2024 10:53 | 3614451 | ||
| 46011_TS_DEWT_041997.nc | 06-Dec-2024 10:56 | 684604 | ||
| 46011_TS_DEWT_041998.nc | 06-Dec-2024 10:59 | 1113128 | ||
| 46011_TS_DEWT_041999.nc | 06-Dec-2024 11:01 | 4834981 | ||
| 46011_TS_DEWT_042000.nc | 06-Dec-2024 11:02 | 1119221 | ||
| 46011_TS_DEWT_042001.nc | 06-Dec-2024 11:04 | 1115458 | ||
| 46011_TS_DEWT_042002.nc | 06-Dec-2024 11:06 | 5514601 | ||
| 46011_TS_DEWT_042003.nc | 06-Dec-2024 11:08 | 651094 | ||
| 46011_TS_DEWT_042004.nc | 06-Dec-2024 11:10 | 1109128 | ||
| 46011_TS_DEWT_042005.nc | 06-Dec-2024 11:12 | 3048374 | ||
| 46011_TS_DEWT_042006.nc | 06-Dec-2024 11:14 | 673372 | ||
| 46011_TS_DEWT_042007.nc | 06-Dec-2024 11:26 | 675476 | ||
| 46011_TS_DEWT_042008.nc | 06-Dec-2024 11:28 | 1112369 | ||
| 46011_TS_DEWT_042009.nc | 06-Dec-2024 11:30 | 1017116 | ||
| 46011_TS_DEWT_042010.nc | 06-Dec-2024 11:32 | 1115576 | ||
| 46011_TS_DEWT_042011.nc | 06-Dec-2024 11:34 | 988833 | ||
| 46011_TS_DEWT_042012.nc | 06-Dec-2024 11:37 | 1112836 | ||
| 46011_TS_DEWT_042013.nc | 06-Dec-2024 11:39 | 3545521 | ||
| 46011_TS_DEWT_042014.nc | 06-Dec-2024 11:41 | 1027389 | ||
| 46011_TS_DEWT_042015.nc | 06-Dec-2024 11:43 | 985733 | ||
| 46011_TS_DEWT_042016.nc | 06-Dec-2024 11:45 | 1111583 | ||
| 46011_TS_DEWT_042017.nc | 06-Dec-2024 11:48 | 3442289 | ||
| 46011_TS_DEWT_042018.nc | 06-Dec-2024 11:53 | 1114542 | ||
| 46011_TS_DEWT_042019.nc | 06-Dec-2024 12:04 | 1117750 | ||
| 46011_TS_DEWT_042020.nc | 06-Dec-2024 12:12 | 1114753 | ||
| 46011_TS_DEWT_042021.nc | 06-Dec-2024 12:28 | 5278897 | ||
| 46011_TS_DEWT_042022.nc | 06-Dec-2024 12:41 | 1112582 | ||
| 46011_TS_DEWT_042023.nc | 06-Dec-2024 12:58 | 1112897 | ||
| 46011_TS_DEWT_051981.nc | 06-Dec-2024 10:17 | 1105981 | ||
| 46011_TS_DEWT_051982.nc | 06-Dec-2024 10:19 | 5552186 | ||
| 46011_TS_DEWT_051983.nc | 06-Dec-2024 10:20 | 5595702 | ||
| 46011_TS_DEWT_051984.nc | 06-Dec-2024 10:22 | 1262501 | ||
| 46011_TS_DEWT_051985.nc | 06-Dec-2024 10:23 | 1261257 | ||
| 46011_TS_DEWT_051986.nc | 06-Dec-2024 10:25 | 1106626 | ||
| 46011_TS_DEWT_051987.nc | 06-Dec-2024 10:26 | 5639593 | ||
| 46011_TS_DEWT_051988.nc | 06-Dec-2024 10:27 | 3968910 | ||
| 46011_TS_DEWT_051989.nc | 06-Dec-2024 10:29 | 1027014 | ||
| 46011_TS_DEWT_051990.nc | 06-Dec-2024 10:30 | 1017148 | ||
| 46011_TS_DEWT_051991.nc | 06-Dec-2024 10:31 | 992589 | ||
| 46011_TS_DEWT_051992.nc | 06-Dec-2024 10:50 | 434011 | ||
| 46011_TS_DEWT_051995.nc | 06-Dec-2024 10:53 | 1265726 | ||
| 46011_TS_DEWT_051996.nc | 06-Dec-2024 10:54 | 1263831 | ||
| 46011_TS_DEWT_051997.nc | 06-Dec-2024 10:56 | 1014883 | ||
| 46011_TS_DEWT_051998.nc | 06-Dec-2024 10:59 | 1008968 | ||
| 46011_TS_DEWT_051999.nc | 06-Dec-2024 11:01 | 1003416 | ||
| 46011_TS_DEWT_052000.nc | 06-Dec-2024 11:02 | 1004000 | ||
| 46011_TS_DEWT_052001.nc | 06-Dec-2024 11:04 | 630569 | ||
| 46011_TS_DEWT_052002.nc | 06-Dec-2024 11:06 | 1026260 | ||
| 46011_TS_DEWT_052003.nc | 06-Dec-2024 11:08 | 1015886 | ||
| 46011_TS_DEWT_052004.nc | 06-Dec-2024 11:10 | 1019136 | ||
| 46011_TS_DEWT_052005.nc | 06-Dec-2024 11:12 | 1018935 | ||
| 46011_TS_DEWT_052006.nc | 06-Dec-2024 11:14 | 1015307 | ||
| 46011_TS_DEWT_052007.nc | 06-Dec-2024 11:26 | 629118 | ||
| 46011_TS_DEWT_052008.nc | 06-Dec-2024 11:28 | 996272 | ||
| 46011_TS_DEWT_052009.nc | 06-Dec-2024 11:30 | 479224 | ||
| 46011_TS_DEWT_052010.nc | 06-Dec-2024 11:32 | 1021507 | ||
| 46011_TS_DEWT_052011.nc | 06-Dec-2024 11:35 | 1012800 | ||
| 46011_TS_DEWT_052012.nc | 06-Dec-2024 11:37 | 1006723 | ||
| 46011_TS_DEWT_052013.nc | 06-Dec-2024 11:39 | 688051 | ||
| 46011_TS_DEWT_052014.nc | 06-Dec-2024 11:41 | 1113248 | ||
| 46011_TS_DEWT_052015.nc | 06-Dec-2024 11:43 | 480204 | ||
| 46011_TS_DEWT_052016.nc | 06-Dec-2024 11:46 | 986549 | ||
| 46011_TS_DEWT_052017.nc | 06-Dec-2024 11:48 | 1020307 | ||
| 46011_TS_DEWT_052018.nc | 06-Dec-2024 11:55 | 1023823 | ||
| 46011_TS_DEWT_052019.nc | 06-Dec-2024 12:04 | 1015907 | ||
| 46011_TS_DEWT_052020.nc | 06-Dec-2024 12:14 | 1112019 | ||
| 46011_TS_DEWT_052021.nc | 06-Dec-2024 12:30 | 1262368 | ||
| 46011_TS_DEWT_052022.nc | 06-Dec-2024 12:42 | 1114675 | ||
| 46011_TS_DEWT_052023.nc | 06-Dec-2024 13:00 | 469654 | ||
| 46011_TS_DEWT_052025.nc | 01-Jun-2025 04:32 | 1019977 | ||
| 46011_TS_DEWT_061981.nc | 06-Dec-2024 10:18 | 1007022 | ||
| 46011_TS_DEWT_061982.nc | 06-Dec-2024 10:19 | 1013264 | ||
| 46011_TS_DEWT_061983.nc | 06-Dec-2024 10:20 | 1108554 | ||
| 46011_TS_DEWT_061984.nc | 06-Dec-2024 10:22 | 1111819 | ||
| 46011_TS_DEWT_061985.nc | 06-Dec-2024 10:23 | 1108257 | ||
| 46011_TS_DEWT_061986.nc | 06-Dec-2024 10:25 | 1020973 | ||
| 46011_TS_DEWT_061987.nc | 06-Dec-2024 10:26 | 1107255 | ||
| 46011_TS_DEWT_061988.nc | 06-Dec-2024 10:27 | 681748 | ||
| 46011_TS_DEWT_061989.nc | 06-Dec-2024 10:29 | 1011932 | ||
| 46011_TS_DEWT_061990.nc | 06-Dec-2024 10:30 | 1260995 | ||
| 46011_TS_DEWT_061991.nc | 06-Dec-2024 10:40 | 1263124 | ||
| 46011_TS_DEWT_061992.nc | 06-Dec-2024 10:50 | 1024146 | ||
| 46011_TS_DEWT_061995.nc | 06-Dec-2024 10:53 | 1023274 | ||
| 46011_TS_DEWT_061996.nc | 06-Dec-2024 10:54 | 1104863 | ||
| 46011_TS_DEWT_061997.nc | 06-Dec-2024 10:57 | 1014337 | ||
| 46011_TS_DEWT_061998.nc | 06-Dec-2024 10:59 | 1014311 | ||
| 46011_TS_DEWT_061999.nc | 06-Dec-2024 11:01 | 1029878 | ||
| 46011_TS_DEWT_062000.nc | 06-Dec-2024 11:02 | 663214 | ||
| 46011_TS_DEWT_062001.nc | 06-Dec-2024 11:04 | 1017110 | ||
| 46011_TS_DEWT_062002.nc | 06-Dec-2024 11:06 | 1013538 | ||
| 46011_TS_DEWT_062003.nc | 06-Dec-2024 11:08 | 1015343 | ||
| 46011_TS_DEWT_062004.nc | 06-Dec-2024 11:10 | 988747 | ||
| 46011_TS_DEWT_062005.nc | 06-Dec-2024 11:12 | 1012289 | ||
| 46011_TS_DEWT_062006.nc | 06-Dec-2024 11:14 | 1000099 | ||
| 46011_TS_DEWT_062007.nc | 06-Dec-2024 11:26 | 1108970 | ||
| 46011_TS_DEWT_062008.nc | 06-Dec-2024 11:28 | 1017056 | ||
| 46011_TS_DEWT_062009.nc | 06-Dec-2024 11:31 | 994610 | ||
| 46011_TS_DEWT_062010.nc | 06-Dec-2024 11:33 | 1023591 | ||
| 46011_TS_DEWT_062011.nc | 06-Dec-2024 11:35 | 666455 | ||
| 46011_TS_DEWT_062012.nc | 06-Dec-2024 11:37 | 1020202 | ||
| 46011_TS_DEWT_062013.nc | 06-Dec-2024 11:39 | 472952 | ||
| 46011_TS_DEWT_062014.nc | 06-Dec-2024 11:41 | 1263014 | ||
| 46011_TS_DEWT_062015.nc | 06-Dec-2024 11:43 | 1263080 | ||
| 46011_TS_DEWT_062016.nc | 06-Dec-2024 11:46 | 1019571 | ||
| 46011_TS_DEWT_062017.nc | 06-Dec-2024 11:48 | 687843 | ||
| 46011_TS_DEWT_062018.nc | 06-Dec-2024 11:56 | 1005492 | ||
| 46011_TS_DEWT_062019.nc | 06-Dec-2024 12:04 | 680944 | ||
| 46011_TS_DEWT_062020.nc | 06-Dec-2024 12:16 | 1023175 | ||
| 46011_TS_DEWT_062021.nc | 06-Dec-2024 12:32 | 1109223 | ||
| 46011_TS_DEWT_062022.nc | 06-Dec-2024 12:44 | 1107840 | ||
| 46011_TS_DEWT_062023.nc | 06-Dec-2024 13:01 | 664937 | ||
| 46011_TS_DEWT_062025.nc | 01-Jul-2025 04:13 | 676179 | ||
| 46011_TS_DEWT_071981.nc | 06-Dec-2024 10:18 | 1003468 | ||
| 46011_TS_DEWT_071982.nc | 06-Dec-2024 10:19 | 1010675 | ||
| 46011_TS_DEWT_071983.nc | 06-Dec-2024 10:21 | 1264909 | ||
| 46011_TS_DEWT_071984.nc | 06-Dec-2024 10:22 | 1114597 | ||
| 46011_TS_DEWT_071985.nc | 06-Dec-2024 10:24 | 1114992 | ||
| 46011_TS_DEWT_071986.nc | 06-Dec-2024 10:25 | 1147274 | ||
| 46011_TS_DEWT_071987.nc | 06-Dec-2024 10:26 | 1146864 | ||
| 46011_TS_DEWT_071988.nc | 06-Dec-2024 10:28 | 1145361 | ||
| 46011_TS_DEWT_071989.nc | 06-Dec-2024 10:29 | 993794 | ||
| 46011_TS_DEWT_071990.nc | 06-Dec-2024 10:30 | 1144987 | ||
| 46011_TS_DEWT_071991.nc | 06-Dec-2024 10:40 | 1143252 | ||
| 46011_TS_DEWT_071992.nc | 06-Dec-2024 10:50 | 1142957 | ||
| 46011_TS_DEWT_071995.nc | 06-Dec-2024 10:53 | 1143908 | ||
| 46011_TS_DEWT_071996.nc | 06-Dec-2024 10:54 | 1146020 | ||
| 46011_TS_DEWT_071997.nc | 06-Dec-2024 10:57 | 1147310 | ||
| 46011_TS_DEWT_071998.nc | 06-Dec-2024 10:59 | 1146662 | ||
| 46011_TS_DEWT_071999.nc | 06-Dec-2024 11:01 | 1145888 | ||
| 46011_TS_DEWT_072000.nc | 06-Dec-2024 11:03 | 1142977 | ||
| 46011_TS_DEWT_072001.nc | 06-Dec-2024 11:05 | 1142948 | ||
| 46011_TS_DEWT_072002.nc | 06-Dec-2024 11:07 | 1142426 | ||
| 46011_TS_DEWT_072003.nc | 06-Dec-2024 11:08 | 993114 | ||
| 46011_TS_DEWT_072004.nc | 06-Dec-2024 11:10 | 992497 | ||
| 46011_TS_DEWT_072005.nc | 06-Dec-2024 11:12 | 992663 | ||
| 46011_TS_DEWT_072006.nc | 06-Dec-2024 11:14 | 916396 | ||
| 46011_TS_DEWT_072007.nc | 06-Dec-2024 11:26 | 992800 | ||
| 46011_TS_DEWT_072008.nc | 06-Dec-2024 11:28 | 993740 | ||
| 46011_TS_DEWT_072009.nc | 06-Dec-2024 11:31 | 913435 | ||
| 46011_TS_DEWT_072010.nc | 06-Dec-2024 11:33 | 915058 | ||
| 46011_TS_DEWT_072011.nc | 06-Dec-2024 11:35 | 994822 | ||
| 46011_TS_DEWT_072012.nc | 06-Dec-2024 11:37 | 918240 | ||
| 46011_TS_DEWT_072013.nc | 06-Dec-2024 11:39 | 916437 | ||
| 46011_TS_DEWT_072014.nc | 06-Dec-2024 11:41 | 992285 | ||
| 46011_TS_DEWT_072015.nc | 06-Dec-2024 11:44 | 916809 | ||
| 46011_TS_DEWT_072016.nc | 06-Dec-2024 11:46 | 917011 | ||
| 46011_TS_DEWT_072017.nc | 06-Dec-2024 11:49 | 916746 | ||
| 46011_TS_DEWT_072018.nc | 06-Dec-2024 11:58 | 1144875 | ||
| 46011_TS_DEWT_072019.nc | 06-Dec-2024 12:05 | 911827 | ||
| 46011_TS_DEWT_072020.nc | 06-Dec-2024 12:17 | 1144797 | ||
| 46011_TS_DEWT_072021.nc | 06-Dec-2024 12:34 | 994496 | ||
| 46011_TS_DEWT_072022.nc | 06-Dec-2024 12:46 | 596082 | ||
| 46011_TS_DEWT_072023.nc | 06-Dec-2024 13:03 | 598650 | ||
| 46011_TS_DEWT_072025.nc | 01-Aug-2025 04:27 | 905750 | ||
| 46011_TS_DEWT_081981.nc | 06-Dec-2024 10:18 | 419087 | ||
| 46011_TS_DEWT_081982.nc | 06-Dec-2024 10:19 | 1147301 | ||
| 46011_TS_DEWT_081983.nc | 06-Dec-2024 10:21 | 1143615 | ||
| 46011_TS_DEWT_081984.nc | 06-Dec-2024 10:22 | 917752 | ||
| 46011_TS_DEWT_081985.nc | 06-Dec-2024 10:24 | 1142469 | ||
| 46011_TS_DEWT_081986.nc | 06-Dec-2024 10:25 | 908683 | ||
| 46011_TS_DEWT_081987.nc | 06-Dec-2024 10:26 | 1142283 | ||
| 46011_TS_DEWT_081988.nc | 06-Dec-2024 10:28 | 1142542 | ||
| 46011_TS_DEWT_081989.nc | 06-Dec-2024 10:29 | 909821 | ||
| 46011_TS_DEWT_081990.nc | 06-Dec-2024 10:30 | 917929 | ||
| 46011_TS_DEWT_081991.nc | 06-Dec-2024 10:42 | 1142252 | ||
| 46011_TS_DEWT_081992.nc | 06-Dec-2024 10:51 | 1142688 | ||
| 46011_TS_DEWT_081994.nc | 06-Dec-2024 10:51 | 994876 | ||
| 46011_TS_DEWT_081995.nc | 06-Dec-2024 10:53 | 418995 | ||
| 46011_TS_DEWT_081996.nc | 06-Dec-2024 10:55 | 1142123 | ||
| 46011_TS_DEWT_081997.nc | 06-Dec-2024 10:57 | 1143354 | ||
| 46011_TS_DEWT_081998.nc | 06-Dec-2024 10:59 | 994913 | ||
| 46011_TS_DEWT_081999.nc | 06-Dec-2024 11:01 | 994084 | ||
| 46011_TS_DEWT_082000.nc | 06-Dec-2024 11:03 | 994356 | ||
| 46011_TS_DEWT_082001.nc | 06-Dec-2024 11:05 | 994461 | ||
| 46011_TS_DEWT_082002.nc | 06-Dec-2024 11:07 | 994322 | ||
| 46011_TS_DEWT_082003.nc | 06-Dec-2024 11:08 | 1142650 | ||
| 46011_TS_DEWT_082004.nc | 06-Dec-2024 11:11 | 1142823 | ||
| 46011_TS_DEWT_082005.nc | 06-Dec-2024 11:13 | 1144653 | ||
| 46011_TS_DEWT_082006.nc | 06-Dec-2024 11:15 | 1143982 | ||
| 46011_TS_DEWT_082007.nc | 06-Dec-2024 11:27 | 432748 | ||
| 46011_TS_DEWT_082008.nc | 06-Dec-2024 11:29 | 596658 | ||
| 46011_TS_DEWT_082009.nc | 06-Dec-2024 11:31 | 1143000 | ||
| 46011_TS_DEWT_082010.nc | 06-Dec-2024 11:33 | 1143730 | ||
| 46011_TS_DEWT_082011.nc | 06-Dec-2024 11:35 | 1143802 | ||
| 46011_TS_DEWT_082012.nc | 06-Dec-2024 11:37 | 1143263 | ||
| 46011_TS_DEWT_082013.nc | 06-Dec-2024 11:39 | 1143011 | ||
| 46011_TS_DEWT_082014.nc | 06-Dec-2024 11:42 | 1142974 | ||
| 46011_TS_DEWT_082015.nc | 06-Dec-2024 11:44 | 1142942 | ||
| 46011_TS_DEWT_082017.nc | 06-Dec-2024 11:49 | 993225 | ||
| 46011_TS_DEWT_082018.nc | 06-Dec-2024 11:59 | 994509 | ||
| 46011_TS_DEWT_082019.nc | 06-Dec-2024 12:05 | 994673 | ||
| 46011_TS_DEWT_082020.nc | 06-Dec-2024 12:19 | 994666 | ||
| 46011_TS_DEWT_082021.nc | 06-Dec-2024 12:36 | 995088 | ||
| 46011_TS_DEWT_082022.nc | 06-Dec-2024 12:48 | 1142357 | ||
| 46011_TS_DEWT_082023.nc | 06-Dec-2024 13:05 | 994628 | ||
| 46011_TS_DEWT_082025.nc | 01-Sep-2025 04:26 | 995478 | ||
| 46011_TS_DEWT_091981.nc | 06-Dec-2024 10:18 | 995136 | ||
| 46011_TS_DEWT_091982.nc | 06-Dec-2024 10:19 | 994485 | ||
| 46011_TS_DEWT_091983.nc | 06-Dec-2024 10:21 | 994579 | ||
| 46011_TS_DEWT_091984.nc | 06-Dec-2024 10:22 | 994553 | ||
| 46011_TS_DEWT_091985.nc | 06-Dec-2024 10:24 | 994142 | ||
| 46011_TS_DEWT_091986.nc | 06-Dec-2024 10:25 | 994560 | ||
| 46011_TS_DEWT_091987.nc | 06-Dec-2024 10:26 | 1141942 | ||
| 46011_TS_DEWT_091988.nc | 06-Dec-2024 10:28 | 1143641 | ||
| 46011_TS_DEWT_091989.nc | 06-Dec-2024 10:29 | 1142945 | ||
| 46011_TS_DEWT_091990.nc | 06-Dec-2024 10:30 | 1143692 | ||
| 46011_TS_DEWT_091991.nc | 06-Dec-2024 10:44 | 1142965 | ||
| 46011_TS_DEWT_091992.nc | 06-Dec-2024 10:51 | 1142793 | ||
| 46011_TS_DEWT_091994.nc | 06-Dec-2024 10:51 | 1143007 | ||
| 46011_TS_DEWT_091995.nc | 06-Dec-2024 10:53 | 1143282 | ||
| 46011_TS_DEWT_091996.nc | 06-Dec-2024 10:55 | 1143655 | ||
| 46011_TS_DEWT_091997.nc | 06-Dec-2024 10:57 | 1143713 | ||
| 46011_TS_DEWT_091998.nc | 06-Dec-2024 10:59 | 1142987 | ||
| 46011_TS_DEWT_091999.nc | 06-Dec-2024 11:02 | 1142941 | ||
| 46011_TS_DEWT_092000.nc | 06-Dec-2024 11:03 | 1142658 | ||
| 46011_TS_DEWT_092001.nc | 06-Dec-2024 11:05 | 1142980 | ||
| 46011_TS_DEWT_092002.nc | 06-Dec-2024 11:07 | 901904 | ||
| 46011_TS_DEWT_092003.nc | 06-Dec-2024 11:09 | 590254 | ||
| 46011_TS_DEWT_092004.nc | 06-Dec-2024 11:11 | 1142923 | ||
| 46011_TS_DEWT_092005.nc | 06-Dec-2024 11:13 | 1143542 | ||
| 46011_TS_DEWT_092006.nc | 06-Dec-2024 11:15 | 1143908 | ||
| 46011_TS_DEWT_092007.nc | 06-Dec-2024 11:27 | 1143264 | ||
| 46011_TS_DEWT_092008.nc | 06-Dec-2024 11:29 | 1144546 | ||
| 46011_TS_DEWT_092009.nc | 06-Dec-2024 11:31 | 1143024 | ||
| 46011_TS_DEWT_092010.nc | 06-Dec-2024 11:33 | 430661 | ||
| 46011_TS_DEWT_092011.nc | 06-Dec-2024 11:35 | 1143853 | ||
| 46011_TS_DEWT_092012.nc | 06-Dec-2024 11:37 | 1143626 | ||
| 46011_TS_DEWT_092013.nc | 06-Dec-2024 11:40 | 1143716 | ||
| 46011_TS_DEWT_092014.nc | 06-Dec-2024 11:42 | 1142349 | ||
| 46011_TS_DEWT_092015.nc | 06-Dec-2024 11:44 | 1143016 | ||
| 46011_TS_DEWT_092016.nc | 06-Dec-2024 11:46 | 1142517 | ||
| 46011_TS_DEWT_092017.nc | 06-Dec-2024 11:49 | 1142791 | ||
| 46011_TS_DEWT_092018.nc | 06-Dec-2024 12:01 | 995429 | ||
| 46011_TS_DEWT_092019.nc | 06-Dec-2024 12:05 | 1143999 | ||
| 46011_TS_DEWT_092020.nc | 06-Dec-2024 12:21 | 1142399 | ||
| 46011_TS_DEWT_092021.nc | 06-Dec-2024 12:37 | 994510 | ||
| 46011_TS_DEWT_092022.nc | 06-Dec-2024 12:49 | 1143602 | ||
| 46011_TS_DEWT_092023.nc | 06-Dec-2024 13:07 | 1142436 | ||
| 46011_TS_DEWT_092025.nc | 01-Oct-2025 03:50 | 1142610 | ||
| 46011_TS_DEWT_101980.nc | 06-Dec-2024 10:17 | 992914 | ||
| 46011_TS_DEWT_101981.nc | 06-Dec-2024 10:18 | 1142122 | ||
| 46011_TS_DEWT_101982.nc | 06-Dec-2024 10:19 | 1141971 | ||
| 46011_TS_DEWT_101983.nc | 06-Dec-2024 10:21 | 1142161 | ||
| 46011_TS_DEWT_101984.nc | 06-Dec-2024 10:22 | 1142380 | ||
| 46011_TS_DEWT_101985.nc | 06-Dec-2024 10:24 | 1142893 | ||
| 46011_TS_DEWT_101986.nc | 06-Dec-2024 10:25 | 994573 | ||
| 46011_TS_DEWT_101987.nc | 06-Dec-2024 10:26 | 994569 | ||
| 46011_TS_DEWT_101988.nc | 06-Dec-2024 10:28 | 994564 | ||
| 46011_TS_DEWT_101989.nc | 06-Dec-2024 10:29 | 994512 | ||
| 46011_TS_DEWT_101990.nc | 06-Dec-2024 10:31 | 1146020 | ||
| 46011_TS_DEWT_101991.nc | 06-Dec-2024 10:45 | 1145975 | ||
| 46011_TS_DEWT_101992.nc | 06-Dec-2024 10:51 | 1146569 | ||
| 46011_TS_DEWT_101994.nc | 06-Dec-2024 10:52 | 1145197 | ||
| 46011_TS_DEWT_101995.nc | 06-Dec-2024 10:54 | 1146423 | ||
| 46011_TS_DEWT_101996.nc | 06-Dec-2024 10:55 | 1145993 | ||
| 46011_TS_DEWT_101997.nc | 06-Dec-2024 10:58 | 1146110 | ||
| 46011_TS_DEWT_101998.nc | 06-Dec-2024 11:00 | 1146397 | ||
| 46011_TS_DEWT_101999.nc | 06-Dec-2024 11:02 | 1145949 | ||
| 46011_TS_DEWT_102000.nc | 06-Dec-2024 11:03 | 1145722 | ||
| 46011_TS_DEWT_102001.nc | 06-Dec-2024 11:05 | 1146101 | ||
| 46011_TS_DEWT_102002.nc | 06-Dec-2024 11:07 | 1146302 | ||
| 46011_TS_DEWT_102003.nc | 06-Dec-2024 11:09 | 1145222 | ||
| 46011_TS_DEWT_102004.nc | 06-Dec-2024 11:11 | 1142859 | ||
| 46011_TS_DEWT_102005.nc | 06-Dec-2024 11:13 | 1142829 | ||
| 46011_TS_DEWT_102006.nc | 06-Dec-2024 11:16 | 1142938 | ||
| 46011_TS_DEWT_102007.nc | 06-Dec-2024 11:27 | 1143002 | ||
| 46011_TS_DEWT_102008.nc | 06-Dec-2024 11:29 | 1143765 | ||
| 46011_TS_DEWT_102009.nc | 06-Dec-2024 11:31 | 996185 | ||
| 46011_TS_DEWT_102010.nc | 06-Dec-2024 11:33 | 994403 | ||
| 46011_TS_DEWT_102011.nc | 06-Dec-2024 11:36 | 1143020 | ||
| 46011_TS_DEWT_102012.nc | 06-Dec-2024 11:38 | 1143675 | ||
| 46011_TS_DEWT_102013.nc | 06-Dec-2024 11:40 | 1144021 | ||
| 46011_TS_DEWT_102014.nc | 06-Dec-2024 11:42 | 605792 | ||
| 46011_TS_DEWT_102015.nc | 06-Dec-2024 11:44 | 996031 | ||
| 46011_TS_DEWT_102016.nc | 06-Dec-2024 11:47 | 1144494 | ||
| 46011_TS_DEWT_102017.nc | 06-Dec-2024 11:49 | 995955 | ||
| 46011_TS_DEWT_102018.nc | 06-Dec-2024 12:03 | 1145495 | ||
| 46011_TS_DEWT_102019.nc | 06-Dec-2024 12:05 | 1144711 | ||
| 46011_TS_DEWT_102020.nc | 06-Dec-2024 12:22 | 1144506 | ||
| 46011_TS_DEWT_102021.nc | 06-Dec-2024 12:39 | 993500 | ||
| 46011_TS_DEWT_102022.nc | 06-Dec-2024 12:51 | 994475 | ||
| 46011_TS_DEWT_102023.nc | 06-Dec-2024 13:08 | 994597 | ||
| 46011_TS_DEWT_102025.nc | 01-Nov-2025 05:20 | 994547 | ||
| 46011_TS_DEWT_111980.nc | 06-Dec-2024 10:17 | 994918 | ||
| 46011_TS_DEWT_111981.nc | 06-Dec-2024 10:18 | 995433 | ||
| 46011_TS_DEWT_111982.nc | 06-Dec-2024 10:20 | 912416 | ||
| 46011_TS_DEWT_111983.nc | 06-Dec-2024 10:21 | 913190 | ||
| 46011_TS_DEWT_111984.nc | 06-Dec-2024 10:23 | 1145225 | ||
| 46011_TS_DEWT_111985.nc | 06-Dec-2024 10:24 | 1145697 | ||
| 46011_TS_DEWT_111987.nc | 06-Dec-2024 10:26 | 1144662 | ||
| 46011_TS_DEWT_111988.nc | 06-Dec-2024 10:28 | 1145966 | ||
| 46011_TS_DEWT_111990.nc | 06-Dec-2024 10:31 | 1147089 | ||
| 46011_TS_DEWT_111994.nc | 06-Dec-2024 10:52 | 1147405 | ||
| 46011_TS_DEWT_111995.nc | 06-Dec-2024 10:54 | 1143811 | ||
| 46011_TS_DEWT_111996.nc | 06-Dec-2024 10:55 | 1145356 | ||
| 46011_TS_DEWT_111997.nc | 06-Dec-2024 10:58 | 1142919 | ||
| 46011_TS_DEWT_111998.nc | 06-Dec-2024 11:00 | 1142766 | ||
| 46011_TS_DEWT_111999.nc | 06-Dec-2024 11:02 | 1142983 | ||
| 46011_TS_DEWT_112000.nc | 06-Dec-2024 11:03 | 1142966 | ||
| 46011_TS_DEWT_112001.nc | 06-Dec-2024 11:05 | 1627646 | ||
| 46011_TS_DEWT_112002.nc | 06-Dec-2024 11:07 | 1627188 | ||
| 46011_TS_DEWT_112003.nc | 06-Dec-2024 11:09 | 1625996 | ||
| 46011_TS_DEWT_112004.nc | 06-Dec-2024 11:11 | 1627258 | ||
| 46011_TS_DEWT_112005.nc | 06-Dec-2024 11:13 | 1465944 | ||
| 46011_TS_DEWT_112006.nc | 06-Dec-2024 11:18 | 1627612 | ||
| 46011_TS_DEWT_112007.nc | 06-Dec-2024 11:27 | 1627836 | ||
| 46011_TS_DEWT_112008.nc | 06-Dec-2024 11:29 | 425267 | ||
| 46011_TS_DEWT_112009.nc | 06-Dec-2024 11:32 | 1470168 | ||
| 46011_TS_DEWT_112010.nc | 06-Dec-2024 11:33 | 1470659 | ||
| 46011_TS_DEWT_112011.nc | 06-Dec-2024 11:36 | 1470510 | ||
| 46011_TS_DEWT_112012.nc | 06-Dec-2024 11:38 | 1473802 | ||
| 46011_TS_DEWT_112013.nc | 06-Dec-2024 11:40 | 1150816 | ||
| 46011_TS_DEWT_112014.nc | 06-Dec-2024 11:42 | 1470640 | ||
| 46011_TS_DEWT_112015.nc | 06-Dec-2024 11:44 | 1470231 | ||
| 46011_TS_DEWT_112016.nc | 06-Dec-2024 11:47 | 440177 | ||
| 46011_TS_DEWT_112017.nc | 06-Dec-2024 11:49 | 1627086 | ||
| 46011_TS_DEWT_112018.nc | 06-Dec-2024 12:03 | 1627595 | ||
| 46011_TS_DEWT_112019.nc | 06-Dec-2024 12:06 | 1627281 | ||
| 46011_TS_DEWT_112020.nc | 06-Dec-2024 12:22 | 1627556 | ||
| 46011_TS_DEWT_112021.nc | 06-Dec-2024 12:39 | 1160014 | ||
| 46011_TS_DEWT_112022.nc | 06-Dec-2024 12:53 | 1627389 | ||
| 46011_TS_DEWT_112023.nc | 06-Dec-2024 13:10 | 1627804 | ||
| 46011_TS_DEWT_112025.nc | 01-Dec-2025 07:16 | 1477940 | ||
| 46011_TS_DEWT_121980.nc | 06-Dec-2024 10:17 | 1474152 | ||
| 46011_TS_DEWT_121981.nc | 06-Dec-2024 10:18 | 1474287 | ||
| 46011_TS_DEWT_121982.nc | 06-Dec-2024 10:20 | 1473962 | ||
| 46011_TS_DEWT_121984.nc | 06-Dec-2024 10:23 | 1477780 | ||
| 46011_TS_DEWT_121985.nc | 06-Dec-2024 10:24 | 1477644 | ||
| 46011_TS_DEWT_121987.nc | 06-Dec-2024 10:27 | 1477807 | ||
| 46011_TS_DEWT_121988.nc | 06-Dec-2024 10:28 | 1477220 | ||
| 46011_TS_DEWT_121990.nc | 06-Dec-2024 10:31 | 1627781 | ||
| 46011_TS_DEWT_121994.nc | 06-Dec-2024 10:52 | 1627411 | ||
| 46011_TS_DEWT_121996.nc | 06-Dec-2024 10:55 | 1627233 | ||
| 46011_TS_DEWT_121997.nc | 06-Dec-2024 10:58 | 1627515 | ||
| 46011_TS_DEWT_121998.nc | 06-Dec-2024 11:00 | 1627622 | ||
| 46011_TS_DEWT_122000.nc | 06-Dec-2024 11:03 | 1625240 | ||
| 46011_TS_DEWT_122001.nc | 06-Dec-2024 11:05 | 1627564 | ||
| 46011_TS_DEWT_122002.nc | 06-Dec-2024 11:07 | 1627850 | ||
| 46011_TS_DEWT_122003.nc | 06-Dec-2024 11:09 | 1477905 | ||
| 46011_TS_DEWT_122004.nc | 06-Dec-2024 11:11 | 588010 | ||
| 46011_TS_DEWT_122005.nc | 06-Dec-2024 11:13 | 1477704 | ||
| 46011_TS_DEWT_122006.nc | 06-Dec-2024 11:20 | 1477687 | ||
| 46011_TS_DEWT_122007.nc | 06-Dec-2024 11:27 | 1477073 | ||
| 46011_TS_DEWT_122008.nc | 06-Dec-2024 11:29 | 1476994 | ||
| 46011_TS_DEWT_122010.nc | 06-Dec-2024 11:34 | 1476886 | ||
| 46011_TS_DEWT_122011.nc | 06-Dec-2024 11:36 | 1477770 | ||
| 46011_TS_DEWT_122012.nc | 06-Dec-2024 11:38 | 1476694 | ||
| 46011_TS_DEWT_122013.nc | 06-Dec-2024 11:40 | 1627668 | ||
| 46011_TS_DEWT_122014.nc | 06-Dec-2024 11:42 | 1477207 | ||
| 46011_TS_DEWT_122015.nc | 06-Dec-2024 11:45 | 1626476 | ||
| 46011_TS_DEWT_122016.nc | 06-Dec-2024 11:47 | 1626221 | ||
| 46011_TS_DEWT_122017.nc | 06-Dec-2024 11:50 | 1626345 | ||
| 46011_TS_DEWT_122018.nc | 06-Dec-2024 12:03 | 1625722 | ||
| 46011_TS_DEWT_122019.nc | 06-Dec-2024 12:06 | 1627602 | ||
| 46011_TS_DEWT_122020.nc | 06-Dec-2024 12:23 | 1627665 | ||
| 46011_TS_DEWT_122021.nc | 06-Dec-2024 12:39 | 1627841 | ||
| 46011_TS_DEWT_122022.nc | 06-Dec-2024 12:55 | 1627787 | ||
| 46011_TS_DEWT_122023.nc | 06-Dec-2024 13:12 | 1627795 | ||
| 46011_TS_DEWT_122025.nc | 01-Jan-2026 08:41 | 1627549 | ||